Location: Unspecified
(57.6483°N, 3.3184°W)
Time: 10:51:44
(UTC+00:00)

BlueWalker 3 - Pass Details

Date: 31 January 2026
Orbit: 450 x 461 km, 53.2° (Epoch: 11 February)

Event Time Altitude Azimuth Distance (km) Brightness Sun altitude
Rises 17:52:33 0° 252° (WSW) 2,459 7.8 -10.0°
Reaches altitude 10° 17:54:45 10° 245° (WSW) 1,585 6.0 -10.3°
Maximum altitude 17:58:06 40° 175° (S) 685 2.7 -10.7°
Enters shadow 18:00:59 13° 107° (ESE) 1,403 3.7 -11.1°
